GW3608 Weather Reports


Display with metric or nautical units.
time (UTC)temp
F
wind
direction
speed
MPH
gust
MPH
rain 1hr
in
rain 24hr
in
rain mn
in
humidity
%
barometer
mb
20260902063038 69 128 0.0 0.0 0.00 1.48 0.00 96 1018.7
20260902061508 69 137 0.0 0.0 0.00 1.48 0.00 96 1018.8
20260902060012 69 137 0.0 0.0 0.00 1.48 0.00 96 1018.9
20260902054529 69 137 0.0 0.0 0.00 1.48 0.00 96 1018.7
20260902053027 69 137 0.0 0.0 0.00 1.48 0.00 96 1018.7
20260902051529 69 137 0.0 0.0 0.00 1.48 0.00 96 1018.7
20260902050038 70 137 0.0 0.0 0.00 1.48 0.00 96 1018.6
20260902044516 69 360 0.0 0.0 0.00 1.48 0.00 96 1018.6
20260902043032 69 360 0.0 0.0 0.00 1.48 0.00 96 1018.4
20260902041529 69 360 0.0 0.0 0.00 1.48 0.00 96 1018.2
20260902040035 69 360 0.0 0.0 0.00 1.48 0.00 96 1018.2
20260902034521 69 360 0.0 0.0 0.00 1.48 1.48 95 1018.1
20260902033020 69 360 0.0 0.0 0.00 1.48 1.48 95 1018.0
20260902031527 69 360 0.0 0.0 0.00 1.48 1.48 95 1018.0
20260902030027 69 360 0.0 0.0 0.00 1.48 1.48 95 1017.9
20260902024531 69 360 0.0 0.0 0.00 1.48 1.48 95 1017.8
20260902023016 69 360 0.0 0.0 0.00 1.48 1.48 95 1017.8
20260902021524 70 360 0.0 0.0 0.00 1.48 1.48 95 1017.9
20260902020005 70 360 0.0 0.0 0.00 1.48 1.48 95 1017.9
20260902014509 70 360 0.0 0.0 0.00 1.48 1.48 95 1017.9
20260902013014 70 360 0.0 0.0 0.00 1.48 1.48 94 1017.6
20260902011513 70 360 0.0 0.0 0.00 1.48 1.48 94 1017.5
20260902010009 71 360 0.0 0.0 0.00 1.50 1.48 94 1017.2
20260902004504 71 360 0.0 0.0 0.00 1.51 1.48 93 1017.2
20260902003021 71 360 0.0 0.0 0.00 1.51 1.48 93 1016.9
20260902001516 72 360 0.0 0.0 0.00 1.52 1.48 93 1016.5
20260902000014 72 360 0.0 0.0 0.00 1.53 1.48 93 1016.5
20260901234506 73 360 0.0 0.0 0.00 1.53 1.48 92 1016.5
20260901233008 73 360 0.0 0.0 0.00 1.53 1.48 92 1016.6
20260901231522 74 360 0.0 0.0 0.00 1.53 1.48 91 1016.3
20260901230016 75 360 0.0 0.0 0.00 1.53 1.48 90 1016.3
20260901224525 75 360 0.0 0.0 0.00 1.53 1.48 89 1016.3
20260901223007 76 360 0.0 0.0 0.00 1.53 1.48 87 1016.1
20260901221512 77 352 0.0 0.0 0.00 1.54 1.48 85 1016.1
20260901220023 78 345 0.0 0.0 0.00 1.55 1.48 84 1016.3
20260901214518 77 310 0.0 0.0 0.00 1.55 1.48 84 1016.2
20260901213039 77 360 0.0 0.0 0.00 1.56 1.48 85 1016.1
20260901211510 78 352 0.0 0.0 0.00 1.56 1.48 83 1015.9
20260901210015 78 352 0.0 0.0 0.00 1.56 1.48 86 1015.8
20260901204532 77 24 0.0 0.0 0.00 1.57 1.48 89 1016.1
20260901203033 76 5 0.0 0.0 0.00 1.58 1.48 89 1016.1
20260901201523 76 23 0.0 0.0 0.00 1.58 1.48 91 1016.3
20260901200012 75 322 0.0 0.0 0.00 1.58 1.48 91 1016.4
20260901194518 76 321 0.0 0.0 0.00 1.63 1.48 90 1016.2
20260901193031 75 231 0.0 0.0 0.00 1.64 1.48 90 1016.4
20260901191525 75 235 0.0 0.0 0.00 1.64 1.48 93 1016.3
20260901190026 75 306 0.0 0.0 0.01 1.64 1.48 95 1016.3
20260901184532 74 263 0.0 0.0 0.03 1.65 1.48 96 1016.2
20260901183020 73 260 0.0 0.0 0.05 1.65 1.48 96 1016.2
20260901181546 72 254 0.0 0.0 0.08 1.65 1.48 96 1016.1
20260901180027 72 224 0.0 0.0 0.10 1.65 1.47 96 1015.9
20260901174547 73 265 0.0 0.0 0.11 1.64 1.45 97 1015.9
20260901173020 71 253 0.0 0.0 0.14 1.65 1.43 97 1015.9
20260901171531 71 253 0.0 0.0 0.15 1.64 1.40 97 1016.0
20260901170006 70 253 0.0 0.0 0.18 1.66 1.37 97 1016.0
20260901164507 71 253 0.0 0.0 0.21 1.64 1.34 97 1016.1
20260901163012 70 253 0.0 0.0 0.22 1.62 1.29 97 1016.2
20260901161526 70 253 0.0 0.0 0.24 1.64 1.25 97 1016.3
20260901160006 70 253 0.0 0.0 0.24 1.65 1.19 97 1016.3
20260901154508 69 253 0.0 0.0 0.25 1.59 1.13 97 1016.5
20260901153013 69 253 0.0 0.0 0.27 1.53 1.07 97 1016.5
20260901151518 69 253 0.0 0.0 0.29 1.47 1.01 97 1016.5
20260901150027 68 253 0.0 0.0 0.31 1.41 0.95 97 1016.5
20260901144506 68 253 0.0 0.0 0.33 1.34 0.88 97 1016.4
20260901143007 68 254 0.0 0.0 0.33 1.26 0.80 97 1016.4
20260901141515 67 254 0.0 0.0 0.33 1.17 0.72 97 1016.5
20260901140026 67 165 0.0 0.0 0.33 1.10 0.64 97 1016.6
20260901134527 67 159 0.0 0.0 0.33 1.01 0.55 97 1016.3
20260901133006 67 169 0.0 0.0 0.35 0.93 0.47 97 1016.8
20260901131515 67 155 0.0 0.0 0.31 0.85 0.39 96 1016.9
20260901130025 67 184 0.0 0.0 0.24 0.77 0.31 96 1016.6
20260901124532 67 184 0.0 0.0 0.16 0.68 0.22 97 1016.8
20260901123042 67 128 0.0 0.0 0.06 0.58 0.12 97 1017.3
20260901121509 67 246 0.0 0.0 0.03 0.54 0.08 96 1017.5
20260901120014 67 146 0.0 0.0 0.02 0.52 0.07 97 1017.0
20260901114517 66 293 0.0 0.0 0.02 0.52 0.06 97 1016.8
20260901113029 66 293 0.0 0.0 0.04 0.52 0.06 96 1016.9
20260901111531 66 293 0.0 0.0 0.03 0.51 0.05 96 1016.5
20260901110012 66 293 0.0 0.0 0.03 0.51 0.05 96 1016.4
20260901104518 66 293 0.0 0.0 0.02 0.50 0.04 96 1016.5
20260901103022 65 293 0.0 0.0 0.00 0.48 0.02 96 1016.5
20260901101529 65 293 0.0 0.0 0.00 0.48 0.02 96 1016.3
20260901100031 65 293 0.0 0.0 0.00 0.48 0.02 96 1016.5
20260901094515 65 293 0.0 0.0 0.00 0.48 0.02 96 1016.4
20260901093021 64 293 0.0 0.0 0.00 0.48 0.02 96 1016.6
20260901091525 65 293 0.0 0.0 0.01 0.48 0.02 96 1016.7
20260901090030 65 293 0.0 0.0 0.01 0.48 0.02 96 1016.8
20260901084531 65 293 0.0 0.0 0.02 0.48 0.02 96 1017.1
20260901083022 65 293 0.0 0.0 0.02 0.48 0.02 96 1017.3
20260901081523 65 293 0.0 0.0 0.01 0.47 0.01 96 1017.4
20260901080010 65 293 0.0 0.0 0.01 0.47 0.01 96 1017.4
20260901074511 65 293 0.0 0.0 0.00 0.46 0.00 96 1017.3
20260901073019 65 293 0.0 0.0 0.00 0.46 0.00 96 1017.4
20260901071521 65 293 0.0 0.0 0.00 0.46 0.00 96 1017.4
20260901070004 65 293 0.0 0.0 0.00 0.46 0.00 96 1017.5
20260901064509 65 293 0.0 0.0 0.00 0.46 0.00 96 1017.5